683  
FPUS82 KCHS 270827  
OPUCHS  
 
TEST   
..KCHS/KSAV GATEWAY OBSERVATIONS
 
TEST  
NATIONAL WEATHER SERVICE CHARLESTON SC  
400 AM EDT THU APR 27 2017  
 
NOTE: "FAIR" INDICATES FEW OR NO CLOUDS BELOW 12,000 FEET WITH NO  
SIGNIFICANT WEATHER AND/OR OBSTRUCTIONS TO VISIBILITY.  
 
SCZ050-WAZ558-NCZ071-TXZ119-213-PAZ071-DCZ001-FLZ074-172-MI076-  
NYZ176-178-MAZ016-IL014-TNZ027-NJZ106-GAZ044-MD014-270900-  
   
..GATEWAY OBSERVATIONS FOR CHARLESTON INTERNATIONAL
 
 
 
CITY SKY/WX TMP DP RH WIND PRES REMARKS  
CHAS AIRPORT CLEAR 64 61 90 S7 29.87R  
SEATTLE CLOUDY 45 39 79 SW12 30.01R  
CHARLOTTE PTCLDY 63 57 81 S8 29.85S  
DALLAS DFW PTCLDY 52 47 83 S3 29.75F  
DALLAS LOVE PTCLDY 49 46 90 CALM 29.77F  
PHILLADELPHIA CLOUDY 61 57 87 CALM 29.84F  
WASH NATIONAL PTCLDY 60 58 92 CALM 29.82F  
BALTIMORE PTCLDY 53 53 100 CALM 29.82F FOG  
MIAMI MOCLDY 79 73 82 SE8 29.89F  
DETROIT CLOUDY 65 53 65 SE8 29.51F  
NEWARK DRIZZLE 58 58 100 CALM 29.85S FOG  
LAGUARDIA DRZL/FOG 57 56 96 CALM 29.85R VSB 1/2  
J F K DRZL/FOG 57 57 100 CALM 29.86S VSB 3/4  
BOSTON LOGAN FOG 50 50 100 NE3 29.86S VSB 1/4  
FT. LAUDERDALE CLOUDY 79 74 84 SE10 29.89S  
CHICAGO O'HARE LGT RAIN 60 57 89 S12 29.35F  
CHICAGO MIDWAY LGT RAIN 61 59 93 S13 29.36F  
HOUSTON BUSH PTCLDY 59 51 75 NE8 29.78F  
HOUSTON HOBBY CLEAR 61 50 67 N15 29.78F  
NASHVILLE LGT RAIN 64 62 93 S5 29.58F  
ATLANTA CLOUDY 65 56 72 S9 29.79F  
 

 
 
GAZ044-118-TXZ119-213-NCZ071-DCZ001-MDZ014-506-PAZ021-071-NJZ106-  
NYZ176-178-MAZ106-OHZ011-021-055-MIZ076-KYZ091-ILZ014-INZ047-  
MNZ060-ONZ431-270900-  
   
..GATEWAY OBSERVATIONS FOR SAVANNAH INTERNATIONAL
 
 
 
CITY SKY/WX TMP DP RH WIND PRES REMARKS  
SAVANNAH ARPT CLEAR 67 62 84 SW6 29.87F  
ATLANTA CLOUDY 65 56 72 S9 29.79F  
CHARLOTTE PTCLDY 63 57 81 S8 29.85S  
DALLAS DFW PTCLDY 52 47 83 S3 29.75F  
HOUSTON BUSH PTCLDY 59 51 75 NE8 29.78F  
WASH NATIONAL PTCLDY 60 58 92 CALM 29.82F  
WASH DULLES MOCLDY 54 53 97 CALM 29.81S  
BALTIMORE PTCLDY 53 53 100 CALM 29.82F FOG  
PHILADELPHIA CLOUDY 61 57 87 CALM 29.84F  
NEWARK DRIZZLE 58 58 100 CALM 29.85S FOG  
LAGUARDIA DRZL/FOG 57 56 96 CALM 29.85R VSB 1/2  
J F K DRZL/FOG 57 57 100 CALM 29.86S VSB 3/4  
BOSTON FOG 50 50 100 NE3 29.86S VSB 1/4  
PITTSBURG CLEAR 62 57 83 SE6 29.69R  
AKRON CLEAR 64 52 64 S10 29.64F  
CLEVELAND MOCLDY 66 50 56 S9 29.61S  
CINCINNATI CLOUDY 69 56 62 S14G20 29.56F  
COLUMBUS CLOUDY 67 53 61 S6 29.61R  
DETROIT CLOUDY 65 53 65 SE8 29.51F  
CHICAGO O'HARE LGT RAIN 60 57 89 S12 29.35F  
MINNEAPOLIS CLOUDY 35 30 82 N7 29.56S WCI 29  
INDIANAPOLIS LGT RAIN 60 57 89 S12 29.54S  
TORONTO CANADA CLEAR 50 48 93 S2 29.66S  
 

 
 
 
CLICK HERE TO GO TO PREVIOUS BULLETINS.

The Nexlab SC Page
The Nexlab GA Page Main Text Page